Weather History for Klawock, AK

Change the Weather History Date:

Wednesday, February 13, 2013

  Actual Average Record
Temperature  
Mean Temperature 36 °F -  
Max Temperature 42 °F 40 °F 57 °F (2004)
Min Temperature 30 °F 30 °F 19 °F (2000)
Degree Days  
Heating Degree Days 29    
Moisture  
Dew Point 32 °F    
Average Humidity 88    
Maximum Humidity 100    
Minimum Humidity 67    
Precipitation  
Precipitation 0.04 in - - ()
Sea Level Pressure  
Sea Level Pressure 30.22 in    
Wind  
Wind Speed 1 mph (WNW)    
Max Wind Speed 7 mph    
Max Gust Speed -    
Visibility 8 miles    
Events Rain    
Averages and records for this station are not official NWS values.
T = Trace of Precipitation, MM = Missing Value Source: NWS Daily Summary

Daily Weather History Graph

Daily Weather History Graph

Search for Another Location

Airport:

Trip Planner

Search our weather history database for the weather conditions in past years. The results will help you decide how hot, cold, wet, or windy it might be!

Date:

Astronomy

Feb. 13, 2013 Rise Set
Actual Time 7:19 AM AKST 4:54 PM AKST
Civil Twilight 6:41 AM AKST 5:32 PM AKST
Nautical Twilight 5:58 AM AKST 6:15 PM AKST
Astronomical Twilight 5:15 AM AKST 6:58 PM AKST
Moon 8:04 AM AKST (2/13) 9:59 PM AKST (2/13)
Length of Visible Light 10h 51m
Length of Day
9h 34m
Waxing Crescent, 15% of the Moon is Illuminated
Feb 13
Waxing Crescent
Feb 17
First Quarter
Feb 25
Full
Mar 4
Last Quarter
Mar 11
New

Hourly Weather History & Observations

Time (AKST) Temp. Windchill Dew Point Humidity Pressure Visibility Wind Dir Wind Speed Gust Speed Precip Events Conditions
12:45 AM 35.6 °F - 33.8 °F 93% 30.20 in 10.0 mi Calm Calm - 0.01 in   Overcast
12:53 AM 35.1 °F 32.2 °F 33.1 °F 92% 30.21 in 10.0 mi South 3.5 mph - 0.01 in Rain Light Rain
1:53 AM 36.0 °F - 33.1 °F 89% 30.22 in 10.0 mi Calm Calm - 0.02 in   Overcast
3:38 AM 32.0 °F - 30.2 °F 93% 30.23 in 2.5 mi Calm Calm - N/A   Scattered Clouds
3:53 AM 30.9 °F - 30.0 °F 96% 30.24 in 5.0 mi Calm Calm - N/A   Partly Cloudy
4:26 AM 30.2 °F - 30.2 °F 100% 30.24 in 4.0 mi Calm Calm - N/A   Mostly Cloudy
4:40 AM 30.2 °F - 28.4 °F 93% 30.24 in 1.8 mi Calm Calm - N/A   Overcast
4:44 AM 30.2 °F - 30.2 °F 100% 30.24 in 0.8 mi Calm Calm - N/A   Overcast
4:53 AM 30.9 °F - 30.9 °F 100% 30.25 in 0.8 mi Calm Calm - N/A   Overcast
5:00 AM 30.2 °F - 30.2 °F 100% 30.24 in 1.0 mi Calm Calm - N/A   Overcast
5:07 AM 30.2 °F - 30.2 °F 100% 30.24 in 0.8 mi Calm Calm - N/A   Overcast
5:16 AM 32.0 °F - 30.2 °F 93% 30.24 in 1.5 mi Calm Calm - N/A   Overcast
5:20 AM 32.0 °F - 30.2 °F 93% 30.24 in 3.0 mi Calm Calm - N/A   Overcast
5:53 AM 32.0 °F - 30.9 °F 96% 30.24 in 10.0 mi Calm Calm - N/A   Overcast
6:53 AM 33.1 °F - 32.0 °F 96% 30.24 in 10.0 mi Calm Calm - N/A   Overcast
7:53 AM 34.0 °F 31.0 °F 32.0 °F 92% 30.26 in 10.0 mi NE 3.5 mph - N/A   Overcast
8:53 AM 35.1 °F 31.0 °F 33.1 °F 92% 30.26 in 10.0 mi North 4.6 mph - N/A   Overcast
9:53 AM 36.0 °F - 33.1 °F 89% 30.27 in 10.0 mi Calm Calm - N/A   Overcast
10:53 AM 39.0 °F - 33.1 °F 79% 30.27 in 10.0 mi Calm Calm - N/A   Mostly Cloudy
11:53 AM 39.9 °F 36.7 °F 32.0 °F 73% 30.27 in 10.0 mi Variable 4.6 mph - N/A   Mostly Cloudy
12:53 PM 42.1 °F 38.4 °F 34.0 °F 73% 30.28 in 10.0 mi South 5.8 mph - N/A   Scattered Clouds
1:53 PM 42.1 °F 37.7 °F 33.1 °F 70% 30.26 in 10.0 mi Variable 6.9 mph - N/A   Scattered Clouds
2:53 PM 42.1 °F 37.7 °F 32.0 °F 67% 30.23 in 10.0 mi SSE 6.9 mph - N/A   Clear
3:53 PM 41.0 °F - 33.1 °F 73% 30.22 in 10.0 mi Calm Calm - N/A   Scattered Clouds
4:53 PM 39.0 °F - 33.1 °F 79% 30.21 in 10.0 mi Calm Calm - N/A   Overcast
5:53 PM 39.9 °F - 33.1 °F 77% 30.21 in 10.0 mi Calm Calm - 0.00 in   Overcast
6:53 PM 39.0 °F 36.8 °F 34.0 °F 82% 30.19 in 10.0 mi Variable 3.5 mph - 0.00 in Rain Light Rain
7:53 PM 37.9 °F - 35.1 °F 89% 30.18 in 10.0 mi Calm Calm - 0.01 in Rain Light Rain
8:04 PM 37.4 °F - 35.6 °F 93% 30.18 in 10.0 mi Calm Calm - 0.00 in Rain Light Rain
8:23 PM 37.4 °F 34.9 °F 35.6 °F 93% 30.17 in 10.0 mi NW 3.5 mph - 0.00 in Rain Light Rain
8:53 PM 37.9 °F - 35.1 °F 89% 30.17 in 10.0 mi Calm Calm - 0.00 in Rain Light Rain
10:53 PM 37.9 °F 34.4 °F 35.1 °F 89% 30.15 in 10.0 mi NW 4.6 mph - 0.00 in   Overcast
11:53 PM 39.0 °F - 35.1 °F 86% 30.12 in 10.0 mi Calm Calm - N/A   Overcast